Location: Newbury
(51.4000°N, 1.3167°W)
Time: 00:58:24
(UTC+00:00)

Daily predictions for brighter satellites

Satellite Brightness Start Highest point End
(mag) Time Altitude Azimuth Time Altitude Azimuth Time Altitude Azimuth
STARLINK-1366 3.1 00:00:00 10° W 00:03:07 70° N 00:06:14 10° ENE
Cosmos 2227 Rocket 2.4 00:01:18 10° NW 00:06:54 59° WSW 00:10:10 25° S
STARLINK-1338 3.6 00:03:11 10° W 00:07:11 80° NNW 00:11:11 10° ENE
Landsat 4 3.7 00:04:10 10° NNE 00:07:53 69° ESE 00:09:24 33° S
STARLINK-1216 4.4 00:04:24 10° W 00:08:07 32° SW 00:08:46 30° SSW
Cosmos 1763 Rocket 3.9 00:05:57 25° SSE 00:08:32 48° ESE 00:13:23 10° NE
STARLINK-52 3.4 00:07:13 10° W 00:10:25 63° N 00:13:36 10° E
Cosmos 2084 Rocket 3.6 00:06:31 10° NW 00:11:00 79° NE 00:14:58 13° SE
Cosmos 1356 Rocket 3.7 00:07:45 10° NNW 00:11:56 60° W 00:13:55 29° SSW
STARLINK-1237 4.4 00:09:24 10° W 00:13:03 30° SW 00:13:34 29° SSW
SL-14 R/B 3.8 00:11:47 25° SW 00:13:45 49° WNW 00:17:31 10° N
STARLINK-1371 3.6 00:11:34 10° W 00:15:32 77° N 00:19:30 10° ENE
SL-16 R/B 4.1 00:12:55 10° ESE 00:18:11 31° ENE 00:23:30 10° N
STARLINK-1341 3.7 00:15:56 10° W 00:19:55 75° N 00:23:55 10° ENE
Nadezhda 1 Rocket 4.0 00:15:06 10° NNW 00:21:20 77° W 00:25:27 23° S
CZ-4 R/B 4.1 00:17:39 10° NNE 00:22:20 56° E 00:24:50 26° S
Cosmos 1300 3.9 00:19:15 10° NNW 00:22:38 31° W 00:24:09 23° SW
STARLINK-1374 3.7 00:20:17 10° W 00:24:17 74° N 00:28:18 10° ENE
STARLINK 1040 3.0 00:26:21 39° ESE 00:26:21 39° ESE 00:28:19 10° E
STARLINK-1444 2.2 00:23:54 10° WNW 00:26:04 70° NNE 00:26:52 33° E
SL-16 R/B 4.5 00:25:10 10° ESE 00:26:34 11° E 00:27:57 10° E
STARLINK-1452 2.1 00:24:32 10° WNW 00:26:41 71° NNE 00:27:17 41° E
Cosmos 2285 Rocket 4.0 00:20:28 10° NNW 00:26:54 86° ENE 00:31:54 17° SSE
STARLINK-1392 2.1 00:25:21 10° WNW 00:27:26 71° N 00:27:26 71° N
STARLINK-1399 2.1 00:25:23 10° WNW 00:27:30 71° N 00:27:36 68° NE
STARLINK-1393 2.1 00:25:25 10° WNW 00:27:31 71° NNE 00:27:35 70° NNE
STARLINK-1394 2.1 00:25:27 10° WNW 00:27:33 71° NNE 00:27:37 70° NNE
STARLINK-1395 2.2 00:25:31 10° WNW 00:27:24 62° NW 00:27:24 62° NW
STARLINK-1397 2.1 00:25:30 10° WNW 00:27:37 71° NNE 00:27:44 67° NE
STARLINK-1396 2.1 00:25:30 10° WNW 00:27:37 71° NNE 00:27:42 69° NE
STARLINK-1414 2.1 00:25:31 10° WNW 00:27:37 71° N 00:27:37 71° N
STARLINK-1408 2.1 00:25:34 10° WNW 00:27:38 71° N 00:27:38 71° N
STARLINK-1404 2.1 00:25:35 10° WNW 00:27:43 71° NNE 00:27:49 68° NE
STARLINK-1416 2.1 00:25:36 10° WNW 00:27:43 71° NNE 00:27:43 71° NNE
STARLINK-1415 2.1 00:25:37 10° WNW 00:27:44 71° NNE 00:27:57 63° ENE
STARLINK-1406 2.1 00:25:40 10° WNW 00:27:41 69° N 00:27:41 69° N
STARLINK-1450 2.1 00:25:39 10° WNW 00:27:47 71° NNE 00:28:00 62° ENE
STARLINK-1401 2.1 00:25:40 10° WNW 00:27:48 71° NNE 00:28:00 63° ENE
STARLINK-1417 2.1 00:25:44 10° WNW 00:27:51 71° NNE 00:28:04 63° ENE
STARLINK-1413 2.1 00:25:45 10° WNW 00:27:52 71° NNE 00:28:05 63° ENE
STARLINK-1402 2.1 00:25:45 10° WNW 00:27:52 71° NNE 00:28:05 63° ENE
STARLINK-1419 2.1 00:25:46 10° WNW 00:27:53 71° NNE 00:28:00 68° NE
STARLINK-1422 2.1 00:25:51 10° WNW 00:27:59 71° NNE 00:28:09 65° NE
STARLINK-1453 2.1 00:25:52 10° WNW 00:28:01 71° NNE 00:28:19 57° ENE
STARLINK-1398 2.1 00:25:54 10° WNW 00:28:02 72° NNE 00:28:28 49° E
STARLINK-1420 2.1 00:25:56 10° WNW 00:28:03 71° NNE 00:28:17 61° ENE
STARLINK-1440 2.1 00:25:57 10° WNW 00:28:06 71° NNE 00:28:21 59° ENE
STARLINK-1460 2.1 00:25:58 10° WNW 00:28:06 71° NNE 00:28:20 61° ENE
STARLINK-1436 (VISORSAT) 2.1 00:25:58 10° WNW 00:28:07 72° NNE 00:28:34 48° E
STARLINK-1410 2.1 00:26:02 10° WNW 00:28:10 72° NNE 00:28:23 63° ENE
STARLINK-1423 2.1 00:26:03 10° WNW 00:28:11 71° NNE 00:28:15 70° NE
STARLINK-1421 2.1 00:26:03 10° WNW 00:28:11 71° NNE 00:28:16 69° NE
STARLINK-1400 2.1 00:26:03 10° WNW 00:28:11 72° NNE 00:28:24 62° ENE
STARLINK-1454 2.1 00:26:04 10° WNW 00:28:12 72° NNE 00:28:26 61° ENE
STARLINK-1458 2.1 00:26:07 10° WNW 00:28:15 71° NNE 00:28:24 66° NE
STARLINK-1445 2.1 00:26:09 10° WNW 00:28:17 72° NNE 00:28:35 58° ENE
STARLINK-1407 2.1 00:26:11 10° WNW 00:28:19 72° NNE 00:28:35 60° ENE
STARLINK-1405 2.2 00:26:14 10° WNW 00:28:09 65° NNW 00:28:09 65° NNW
STARLINK-1446 2.1 00:26:11 10° WNW 00:28:20 72° NNE 00:28:37 58° ENE
STARLINK-1370 2.1 00:26:14 10° WNW 00:28:22 72° NNE 00:28:37 61° ENE
STARLINK-1439 2.2 00:26:17 10° WNW 00:28:12 64° NNW 00:28:12 64° NNW
STARLINK-1456 2.1 00:26:16 10° WNW 00:28:23 72° N 00:28:33 66° NE
STARLINK-1457 2.1 00:26:16 10° WNW 00:28:23 72° N 00:28:33 66° NE
STARLINK-1451 2.1 00:26:16 10° WNW 00:28:23 72° N 00:28:33 66° NE
STARLINK-1409 2.1 00:26:16 10° WNW 00:28:24 72° NNE 00:28:33 66° NE
STARLINK-1447 2.1 00:26:17 10° WNW 00:28:25 72° NNE 00:28:41 59° ENE
STARLINK-1455 2.1 00:26:17 10° WNW 00:28:26 72° NNE 00:28:41 60° ENE
STARLINK-1437 2.1 00:26:19 10° WNW 00:28:26 72° NNE 00:28:38 64° ENE
STARLINK-1441 2.1 00:26:20 10° WNW 00:28:27 72° NNE 00:28:44 59° ENE
STARLINK-1443 2.1 00:26:22 10° WNW 00:28:31 72° NNE 00:28:52 54° ENE
STARLINK-1351 2.1 00:26:24 10° WNW 00:28:32 72° NNE 00:28:49 59° ENE
STARLINK-1418 2.1 00:26:24 10° WNW 00:28:32 72° NNE 00:28:48 60° ENE
STARLINK-1403 2.1 00:26:24 10° WNW 00:28:32 72° NNE 00:28:52 56° ENE
STARLINK-1339 3.7 00:24:33 10° W 00:28:33 73° N 00:32:31 10° ENE
STARLINK-1442 2.1 00:26:25 10° WNW 00:28:33 72° NNE 00:28:50 59° ENE
STARLINK-1434 2.1 00:26:24 10° WNW 00:28:33 72° NNE 00:28:54 54° ENE
STARLINK-1448 2.1 00:26:27 10° WNW 00:28:35 72° NNE 00:28:52 59° ENE
STARLINK-1433 2.1 00:26:28 10° WNW 00:28:36 72° NNE 00:28:51 60° ENE
STARLINK-1449 2.1 00:26:30 10° WNW 00:28:39 72° NNE 00:28:57 57° ENE
STARLINK-1438 2.1 00:26:33 10° WNW 00:28:40 72° NNE 00:28:49 67° NE
STARLINK-1411 2.1 00:26:40 10° WNW 00:28:48 72° NNE 00:29:01 63° ENE
STARLINK-1412 2.1 00:26:40 10° WNW 00:28:48 72° NNE 00:29:05 59° ENE
CZ-2D R/B 4.2 00:27:36 10° NE 00:30:55 17° E 00:34:12 10° SE
Cosmos-2242 3.5 00:27:27 10° N 00:31:39 53° ENE 00:34:23 20° SSE
Meteor 2-10 Rocket 3.4 00:26:55 10° NNW 00:32:08 89° E 00:35:16 24° SSE
STARLINK-1377 3.7 00:28:58 10° W 00:32:58 72° N 00:36:59 10° ENE
USA 81 4.4 00:30:17 22° SSE 00:33:36 58° E 00:38:48 10° NNE
BREEZE-M R/B 3.2 00:28:46 10° WSW 00:35:44 64° S 00:39:14 10° E
USA 215 3.3 00:29:35 10° SE 00:36:05 62° SW 00:42:35 10° WNW
STARLINK-42 4.0 00:36:26 27° SE 00:36:26 27° SE 00:38:54 10° E
Cosmos 1626 Rocket 3.7 00:34:39 26° SSW 00:37:00 63° WNW 00:41:22 10° N
STARLINK-1353 3.8 00:33:18 10° W 00:37:18 71° N 00:41:19 10° ENE
Meteor 1-21 Rocket 4.3 00:34:27 24° S 00:38:03 74° E 00:43:51 10° NNE
STARLINK-60 2.8 00:35:18 10° WNW 00:38:30 87° SSW 00:41:42 10° ESE
FALCON 9 DEB 3.5 00:35:23 10° W 00:38:48 66° N 00:42:15 10° E
STARLINK-41 4.0 00:40:10 27° SE 00:40:10 27° SE 00:42:33 10° E
STARLINK-1375 3.8 00:37:40 10° W 00:41:41 70° N 00:45:42 10° E
STARLINK-1272 4.4 00:42:02 25° SE 00:42:07 25° SE 00:45:04 10° E
SeaSat 1 3.5 00:37:59 10° NNE 00:42:38 43° NW 00:47:16 10° WSW
Cosmos 540 Rocket 3.9 00:41:07 23° S 00:44:00 49° ESE 00:48:57 10° NNE
STARLINK-1350 3.8 00:42:01 10° W 00:46:01 70° N 00:50:02 10° E
STARLINK-1307 4.4 00:46:48 26° SSE 00:47:15 27° SE 00:50:27 10° E
Helios 1B rocket 2.4 00:44:02 10° NNE 00:48:12 87° ESE 00:50:24 27° SSW
NOSS 7 (H) 4.2 00:46:44 27° WSW 00:48:13 70° NW 00:51:10 10° NE
STARLINK-1352 3.8 00:46:16 10° W 00:50:17 69° N 00:54:17 10° E
STARLINK-1290 4.3 00:50:11 27° SSE 00:50:44 28° SE 00:54:00 10° E
STARLINK-1368 3.8 00:50:52 10° W 00:54:54 69° N 00:58:55 10° E
Cosmos 1980 Rocket 2.6 00:51:50 22° S 00:55:16 53° ESE 01:00:46 10° NE
Uosat 12 SS-18 rocket 4.5 00:51:50 10° NW 00:55:54 42° WSW 00:58:02 25° S
ERBS 4.0 00:53:26 10° W 00:55:10 18° WSW 00:55:10 18° WSW
Meteor 1-29 2.9 00:53:23 10° NNE 00:56:45 71° ESE 00:58:11 31° S
STARLINK-1317 4.2 00:56:33 28° S 00:57:40 34° SE 01:01:14 10° E
Cosmos 1626 4.4 00:55:23 10° WSW 00:57:52 17° WNW 01:00:24 10° NNW
Cosmos 468 Rocket 4.2 00:54:20 20° SW 00:57:53 64° WNW 01:03:01 10° NNE
Cosmos 1455 2.4 00:54:43 10° NNW 00:58:25 55° W 01:00:05 29° SSW
STARLINK-1369 3.9 00:55:19 10° W 00:59:19 68° N 01:03:21 10° E
STARLINK-55 3.2 01:00:33 35° SSW 01:01:25 46° SSE 01:04:31 10° ENE
STARLINK-1274 4.0 01:00:56 29° S 01:01:41 33° SSE 01:04:54 10° E
Cosmos 1328 3.9 00:59:35 26° S 01:01:44 68° E 01:05:43 10° NNE
Cosmos 1812 Rocket 4.4 00:57:54 10° NNW 01:02:01 37° W 01:04:13 23° SW
STARLINK-43 3.2 01:00:05 18° WSW 01:02:41 74° SSE 01:06:22 10° ENE
STARLINK-1372 3.9 00:59:33 10° W 01:03:34 68° N 01:07:34 10° E
Cosmos 1937 Rocket 4.1 00:59:24 10° NW 01:04:19 40° WSW 01:07:10 22° SSW
STARLINK-1291 4.0 01:04:15 29° S 01:05:21 36° SSE 01:08:48 10° E
Cosmos 1745 Rocket 4.5 01:01:26 18° SW 01:05:48 50° WNW 01:11:47 10° N
Cosmos 2369 3.7 01:02:04 20° SSW 01:06:03 84° WNW 01:11:46 10° NNE
Lacrosse 4 Rocket 2.7 01:02:44 10° WNW 01:06:12 24° WSW 01:07:20 21° SW
Cosmos 1703 3.2 01:05:53 27° S 01:07:59 86° E 01:11:56 10° NNE
STARLINK-1378 3.9 01:04:11 10° W 01:08:12 68° N 01:12:14 10° E
STARLINK-1264 4.0 01:07:26 28° S 01:08:39 37° SSE 01:12:09 10° E
ADEOS II 4.4 01:05:57 10° NE 01:08:54 15° E 01:11:50 10° ESE
Cosmos 2263 Rocket 2.4 01:03:27 10° NNW 01:09:05 73° ENE 01:14:39 10° SE
Timation 1 Rocket 4.3 01:04:37 10° NW 01:10:36 77° WSW 01:16:19 11° SSE
Cosmos 1825 Rocket 3.5 01:08:39 25° S 01:11:11 88° W 01:15:35 10° N
STARLINK-29 2.8 01:08:04 10° WNW 01:11:17 89° SSW 01:14:29 10° ESE
STARLINK-1267 3.9 01:10:39 28° SSW 01:12:00 39° SSE 01:15:31 10° ENE
Cosmos 2297 Rocket 3.9 01:08:46 10° WNW 01:12:26 18° W 01:14:46 14° SW
STARLINK-1379 3.9 01:08:41 10° W 01:12:42 68° N 01:16:45 10° E
SL-4 R/B 2.3 01:07:55 10° WNW 01:12:43 63° SSW 01:17:25 10° ESE
STARLINK-28 3.0 01:11:33 29° SW 01:12:55 57° SSE 01:16:04 10° ENE
USA 229 DEB 3.9 01:07:12 10° NW 01:14:26 88° NE 01:22:03 10° SE
USA 229 3.9 01:07:19 10° NW 01:14:32 87° NE 01:22:09 10° SE
NOSS 3-1 (C) 4.0 01:07:57 10° NW 01:15:16 87° SW 01:23:48 10° SE
UNK 4.3 01:11:41 10° SSE 01:16:09 55° ENE 01:20:39 10° N
STARLINK-1329 3.9 01:12:29 10° W 01:16:32 69° N 01:20:34 10° E
Cosmos 372 Rocket 4.0 01:11:52 10° NNW 01:16:58 64° WSW 01:20:47 18° S
STARLINK-1207 3.8 01:17:09 27° SSW 01:18:45 43° SSE 01:22:19 10° ENE
PSLV R/B 4.2 01:14:33 10° N 01:18:51 48° WNW 01:21:39 19° SW
STARLINK-1362 3.9 01:17:01 10° W 01:21:04 69° N 01:25:06 10° E
Cosmos 2184 Rocket 4.5 01:16:26 14° SSE 01:21:32 55° E 01:27:33 10° NNE
CZ-4C R/B 2.6 01:16:43 12° WSW 01:21:35 65° NW 01:27:56 10° NE
Cosmos 2360 4.2 01:17:45 19° SSW 01:21:54 83° WNW 01:27:40 10° NNE
STARLINK-1266 3.7 01:20:25 26° SSW 01:22:08 45° SSE 01:25:44 10° ENE
BREEZE-M DEB (TANK) 3.5 01:23:14 17° SE 01:23:14 17° SE 01:24:26 10° ESE
STARLINK-33 2.9 01:21:40 27° SW 01:23:06 59° SSE 01:26:11 10° ENE
NOSS 3-1 (A) 4.2 01:16:08 10° NW 01:23:24 79° NE 01:31:54 10° SE
STARLINK-1284 3.7 01:23:40 25° SSW 01:25:31 47° SSE 01:29:09 10° ENE
STARLINK-1373 3.9 01:21:34 10° W 01:25:36 70° N 01:29:37 10° E
STARLINK-1320 3.2 01:22:46 10° WNW 01:25:53 67° N 01:29:00 10° E
Alouette 2 Rocket 4.3 01:21:31 10° NNW 01:26:04 37° W 01:28:04 22° SW
STARLINK-1322 3.2 01:23:08 10° WNW 01:26:15 67° N 01:29:22 10° E
STARLINK-26 3.1 01:24:27 21° SW 01:26:33 66° SSE 01:29:58 10° ENE
STARLINK-1324 3.2 01:23:26 10° WNW 01:26:34 68° N 01:29:41 10° E
BREEZE-M DEB (TANK) 1.0 01:24:01 10° W 01:26:48 60° S 01:29:06 10° E
STARLINK-1294 3.2 01:23:45 10° WNW 01:26:52 68° N 01:30:01 10° E
STARLINK-1261 3.2 01:24:08 10° WNW 01:27:15 68° N 01:30:22 10° E
STARLINK-1325 3.2 01:24:29 10° WNW 01:27:36 68° N 01:30:44 10° E
STARLINK-1333 3.2 01:24:51 10° WNW 01:27:59 68° N 01:31:05 10° E
STARLINK-1334 3.2 01:25:08 10° WNW 01:28:16 68° N 01:31:22 10° E
STARLINK-1326 3.2 01:25:28 10° WNW 01:28:35 68° N 01:31:42 10° E
STARLINK-1258 3.6 01:26:59 24° SW 01:28:57 49° SSE 01:32:35 10° ENE
Cosmos 1869 4.4 01:25:17 10° N 01:28:58 40° ENE 01:32:37 10° SE
STARLINK-1323 3.2 01:25:50 10° WNW 01:28:58 68° N 01:32:05 10° E
STARLINK-1349 3.2 01:26:08 10° WNW 01:29:15 68° N 01:32:23 10° E
STARLINK-1336 3.2 01:26:28 10° WNW 01:29:35 69° N 01:32:42 10° E
Cosmos 2150 Rocket 4.0 01:24:28 10° NNW 01:29:37 67° WSW 01:33:54 15° S
STARLINK-1331 3.2 01:26:51 10° WNW 01:29:58 69° N 01:33:05 10° E
STARLINK-1390 3.8 01:26:09 10° W 01:30:12 70° N 01:34:16 10° E
STARLINK-1344 3.2 01:27:09 10° WNW 01:30:16 69° N 01:33:24 10° E
STARLINK-1343 3.2 01:27:32 10° WNW 01:30:39 69° N 01:33:46 10° E
STARLINK-1346 3.2 01:27:48 10° WNW 01:30:57 69° N 01:34:06 10° E
STARLINK-1328 3.2 01:28:15 10° WNW 01:31:22 69° N 01:34:29 10° E
STARLINK-1354 3.2 01:28:32 10° WNW 01:31:40 69° N 01:34:46 10° E
STARLINK-1347 3.2 01:28:49 10° WNW 01:31:57 69° N 01:35:04 10° E
ATLAS CENTAUR R/B 4.4 01:30:31 10° NW 01:32:18 13° N 01:34:03 10° NNE
STARLINK-1292 3.6 01:30:17 23° SW 01:32:22 51° SSE 01:36:02 10° ENE
STARLINK-1357 3.1 01:29:15 10° WNW 01:32:23 70° N 01:35:30 10° E
STARLINK-1335 3.1 01:29:33 10° WNW 01:32:40 70° N 01:35:47 10° E
STARLINK-1327 3.1 01:29:54 10° WNW 01:33:01 70° N 01:36:08 10° E
Cosmos 1814 Rocket 4.1 01:29:12 19° SSW 01:33:03 78° WNW 01:38:23 10° NNE
STARLINK-1340 3.1 01:30:11 10° WNW 01:33:18 70° N 01:36:25 10° E
STARLINK-1356 3.1 01:30:34 10° WNW 01:33:41 70° N 01:36:49 10° E
STARLINK-1345 3.1 01:30:53 10° WNW 01:34:00 70° N 01:37:07 10° E
Cosmos 2322 Rocket 3.5 01:29:42 11° SSE 01:34:11 30° ESE 01:38:58 10° NE
STARLINK-1355 3.1 01:31:14 10° WNW 01:34:22 70° N 01:37:29 10° E
STARLINK-1321 3.1 01:31:35 10° WNW 01:34:42 70° N 01:37:50 10° E
SJ 16-02 3.6 01:33:41 10° WNW 01:35:00 11° W 01:36:18 10° WSW
STARLINK-1358 3.1 01:31:58 10° WNW 01:35:06 71° N 01:38:13 10° E
STARLINK-1332 3.1 01:32:16 10° WNW 01:35:23 71° N 01:38:31 10° E
STARLINK-1348 3.1 01:32:36 10° WNW 01:35:43 71° N 01:38:51 10° E
STARLINK-1330 3.1 01:32:56 10° WNW 01:36:03 71° N 01:39:10 10° E
STARLINK-1365 3.8 01:32:08 10° W 01:36:13 72° N 01:40:17 10° E
STARLINK-1363 3.1 01:33:15 10° WNW 01:36:23 71° N 01:39:30 10° E
STARLINK-1337 3.1 01:33:38 10° WNW 01:36:46 71° N 01:39:53 10° E
STARLINK-1342 3.1 01:33:57 10° WNW 01:37:05 71° N 01:40:12 10° E
SL-19 R/B 4.4 01:31:34 10° NNE 01:37:12 79° WNW 01:41:48 17° SSW
STARLINK-1364 3.1 01:34:18 10° WNW 01:37:25 72° N 01:40:33 10° E
STARLINK-1376 3.1 01:34:38 10° WNW 01:37:45 72° N 01:40:52 10° E
Cosmos 2181 Rocket 4.3 01:31:36 10° NNW 01:37:52 55° W 01:42:49 17° SSW
STARLINK-1268 3.0 01:36:29 25° SW 01:38:02 55° SSE 01:41:04 10° ENE
STARLINK-1360 3.1 01:34:58 10° WNW 01:38:06 72° N 01:41:13 10° E
STARLINK-1361 3.1 01:35:19 10° WNW 01:38:26 72° N 01:41:34 10° E
STARLINK-1367 3.1 01:35:35 10° WNW 01:38:44 73° N 01:41:53 10° E
STARLINK-1366 3.1 01:35:58 10° WNW 01:39:06 72° NNE 01:42:12 10° E
STARLINK-1289 3.5 01:36:52 20° SW 01:39:13 56° SSE 01:42:54 10° ENE
Resurs 1-4 Rocket 2.5 01:35:12 10° NNE 01:40:28 59° ESE 01:44:54 14° S
STARLINK-1301 3.5 01:38:35 19° SW 01:41:10 59° SSE 01:44:58 10° ENE
Cosmos 1697 Rocket 3.4 01:36:19 13° SW 01:41:16 49° NW 01:46:48 10° NNE
STARLINK-66 2.8 01:39:32 17° WSW 01:41:49 76° SSE 01:45:02 10° ENE
Cosmos 1400 Rocket 3.2 01:38:05 10° NNW 01:42:06 50° W 01:44:46 20° SSW
Cosmos 2278 3.9 01:38:01 16° SW 01:42:33 66° WNW 01:48:14 10° NNE
STARLINK-1303 3.4 01:40:12 19° SW 01:42:41 58° SSE 01:46:24 10° ENE
Cosmos 841 Rocket 3.9 01:38:49 17° SW 01:42:50 58° WNW 01:47:59 10° NNE
Cosmos 1125 Rocket 3.4 01:38:02 10° NNW 01:43:16 79° WSW 01:48:28 10° SSE
STARLINK-1316 2.9 01:41:30 22° SW 01:43:16 59° SSE 01:46:22 10° ENE
DELTA 2 DEB (DPAF) 4.4 01:40:14 18° S 01:43:22 54° W 01:47:46 10° NNW
STARLINK-1257 2.9 01:42:21 22° SW 01:44:10 60° SSE 01:47:16 10° ENE
STARLINK-1256 2.9 01:43:18 22° SW 01:45:08 61° SSE 01:48:13 10° ENE
STARLINK-58 3.2 01:44:01 24° SW 01:45:37 48° SSE 01:48:43 10° ENE
STARLINK-1213 2.9 01:44:08 21° SW 01:46:01 61° SSE 01:49:06 10° ENE
STARLINK-1312 3.4 01:43:33 18° SW 01:46:10 61° SSE 01:49:54 10° ENE
STARLINK-1338 3.7 01:42:21 10° WNW 01:46:22 73° N 01:50:21 10° E
STARLINK-52 2.8 01:43:24 10° WNW 01:46:36 65° SSW 01:49:47 10° ESE
STARLINK-1263 2.9 01:45:01 21° SW 01:46:54 62° SSE 01:50:00 10° ENE
STARLINK-1259 2.9 01:45:54 20° SW 01:47:50 63° SSE 01:50:56 10° ENE
STARLINK-1265 2.9 01:46:15 20° SW 01:48:14 63° SSE 01:51:21 10° ENE
STARLINK-1285 2.8 01:46:45 20° SW 01:48:43 64° SSE 01:51:49 10° ENE
Cosmos 2227 Rocket 4.3 01:48:54 10° W 01:49:45 10° W 01:50:36 10° WSW
STARLINK-1296 2.8 01:48:30 19° SW 01:50:31 65° SSE 01:53:38 10° ENE
STARLINK-1260 2.8 01:49:21 19° WSW 01:51:25 66° SSE 01:54:32 10° ENE
STARLINK-1318 2.8 01:50:13 19° WSW 01:52:20 67° SSE 01:55:26 10° ENE
STARLINK-75 2.9 01:50:26 15° WSW 01:53:03 81° SSE 01:56:17 10° ENE
STARLINK-1275 2.8 01:51:06 18° WSW 01:53:14 67° SSE 01:56:20 10° ENE
STARLINK-1309 2.8 01:51:57 18° WSW 01:54:07 68° SSE 01:57:13 10° ENE
STARLINK-1371 3.7 01:50:39 10° WNW 01:54:37 76° N 01:58:34 10° E
STARLINK-1282 2.8 01:52:49 18° WSW 01:55:00 69° SSE 01:58:07 10° ENE
Cosmos 2154 Rocket 4.3 01:49:51 11° S 01:55:50 65° E 02:01:59 10° NNE
STARLINK-1313 2.8 01:53:45 16° WSW 01:56:07 75° SSE 01:59:14 10° ENE
Meteor 1-27 4.3 01:50:45 10° NNW 01:56:15 64° W 02:01:18 12° S
STARLINK-48 3.9 01:53:48 19° SW 01:56:16 45° SSE 02:00:00 10° ENE
STARLINK-1279 2.8 01:54:39 16° WSW 01:57:03 76° SSE 02:00:10 10° ENE
STARLINK-1298 2.8 01:55:23 17° WSW 01:57:40 71° SSE 02:00:48 10° ENE
STARLINK-1293 2.8 01:56:16 16° WSW 01:58:36 72° SSE 02:01:44 10° ENE
STARLINK-80 3.3 01:55:29 14° WSW 01:58:42 72° SSE 02:02:29 10° ENE
GEOS 3 Rocket 3.6 01:53:31 10° SE 01:58:44 81° SW 02:04:05 10° NW
STARLINK-1341 3.7 01:55:02 10° WNW 01:59:01 77° N 02:02:59 10° E
STARLINK-1283 3.5 01:55:37 13° WSW 01:59:17 74° SSE 02:03:25 10° ENE
STARLINK 1040 2.9 01:57:14 10° W 01:59:45 59° N 02:02:18 10° ENE
Iridium 2 3.6 01:56:03 10° N 01:59:51 90° WSW 02:03:11 13° S
STARLINK-1255 2.8 01:58:02 16° WSW 02:00:25 73° SSE 02:03:33 10° ENE
STARLINK-22 2.8 01:58:39 14° WSW 02:01:18 77° SSE 02:04:31 10° ENE
SL-16 R/B 2.6 01:55:28 11° S 02:01:26 63° WSW 02:07:37 10° NNW
Meteor 2-2 Rocket 4.4 01:55:37 10° NNW 02:01:42 90° ESE 02:07:41 10° S
STARLINK-1311 2.6 02:00:03 15° WSW 02:02:26 82° SSE 02:05:24 10° ENE
SL-08 R/B 4.5 01:58:58 10° SE 02:03:18 42° ENE 02:07:40 10° N
STARLINK-1297 3.2 02:00:20 14° WSW 02:03:22 72° SSE 02:06:59 10° ENE
STARLINK-1374 3.7 01:59:30 10° WNW 02:03:30 79° N 02:07:31 10° E
Cosmos 1844 Rocket 3.7 01:58:04 10° NNW 02:03:31 49° NE 02:08:55 10° SE
CRYOSAT 2 4.4 02:01:52 10° N 02:06:49 81° E 02:11:31 11° S
NOSS 2-1 (E) 3.7 02:04:58 17° S 02:07:17 42° SE 02:10:50 10° NE
STARLINK-1339 3.6 02:03:40 10° WNW 02:07:39 80° NNE 02:11:38 10° E
SL-16 R/B 2.5 02:04:36 14° SSW 02:09:29 62° ESE 02:15:06 10° NE
MOZ.5/SAFIR/RUBIN 5/SL-8 4.4 02:07:55 15° SSW 02:11:21 37° W 02:15:42 10° NNW
STARLINK-1281 4.5 02:08:48 16° SSW 02:11:36 35° SE 02:15:22 10° E
CZ-2D R/B 2.1 02:06:25 10° NNE 02:11:41 84° WNW 02:16:21 13° SSW
STARLINK-42 2.9 02:08:35 10° WSW 02:11:43 83° NNW 02:14:50 10° ENE
Cosmos 2221 2.6 02:07:43 10° NNW 02:12:03 66° W 02:16:17 11° S
STARLINK-1377 3.6 02:08:11 10° WNW 02:12:13 83° NNE 02:16:14 10° ESE
STARLINK-1029 3.0 02:11:18 16° SW 02:13:42 59° SSE 02:16:50 10° ENE
STARLINK-60 4.1 02:11:41 10° W 02:14:18 23° SW 02:16:54 10° SSE
STARLINK-34 2.8 02:11:58 14° WSW 02:14:31 71° SSE 02:17:35 10° ENE
STARLINK-41 2.8 02:12:12 10° WSW 02:15:15 83° NNW 02:18:19 10° ENE
FALCON 9 DEB 3.1 02:12:28 10° WNW 02:15:53 62° SSW 02:19:19 10° ESE
STARLINK-1310 4.4 02:13:35 15° SSW 02:16:33 37° SE 02:20:23 10° ENE
STARLINK-1353 3.6 02:12:32 10° WNW 02:16:34 85° NNE 02:20:35 10° ESE
GP-B 3.9 02:12:50 10° NNW 02:16:57 38° W 02:20:25 14° SW
ATLAS 5 CENTAUR R/B 4.1 02:15:50 10° NNW 02:16:59 13° N 02:18:21 10° NE
Nadezhda 3 Rocket 4.1 02:11:01 10° NNW 02:17:20 76° W 02:23:40 10° S
CZ-4C R/B 4.4 02:14:17 14° SSW 02:17:38 36° W 02:21:45 10° NNW
Cosmos 1315 Rocket 3.0 02:13:56 10° NNW 02:17:48 53° W 02:21:25 11° S
STARLINK-62 2.7 02:15:41 13° WSW 02:18:21 75° SSE 02:21:23 10° ENE
STARLINK-1272 3.1 02:15:32 10° WSW 02:19:05 85° SSE 02:22:39 10° ENE
Cosmos 1842 Rocket 4.0 02:14:58 10° NNW 02:19:17 47° W 02:23:13 12° SSW
USA 215 4.4 02:15:21 10° S 02:20:01 21° SW 02:24:46 10° WNW
STARLINK-1375 3.6 02:16:55 10° WNW 02:20:57 87° NNE 02:24:59 10° ESE
CBERS-1 4.3 02:16:09 10° NNE 02:21:16 65° ESE 02:26:21 10° S
STARLINK-1319 4.3 02:18:21 14° SSW 02:21:29 39° SSE 02:25:22 10° ENE
IRIDIUM 114 4.5 02:17:15 10° S 02:22:28 76° E 02:27:42 10° N
STARLINK-1307 3.3 02:21:15 10° WSW 02:24:59 87° SSE 02:28:43 10° ENE
STARLINK-1350 3.5 02:21:16 10° WNW 02:25:18 89° NNE 02:29:20 10° ESE
STARLINK-1277 4.2 02:23:08 14° SW 02:26:26 42° SSE 02:30:22 10° ENE
Shenzhou-11 Module 3.7 02:26:47 12° S 02:26:47 12° S 02:27:42 10° SSE
STARLINK-1290 3.3 02:24:47 10° WSW 02:28:30 89° S 02:32:15 10° ENE
STARLINK-1352 3.5 02:25:27 10° WNW 02:29:28 88° SSW 02:33:29 10° ESE
Cosmos 2058 3.0 02:27:01 10° S 02:31:12 88° E 02:35:27 10° N
STARLINK-1276 4.1 02:27:56 13° SW 02:31:25 45° SSE 02:35:23 10° ENE
IRIDIUM 103 4.4 02:26:24 10° S 02:31:38 89° ENE 02:36:53 10° N
Cosmos 2360 Rocket 3.1 02:26:24 10° S 02:31:40 43° ESE 02:36:58 10° NE
STARLINK-1368 3.5 02:30:08 10° WNW 02:34:10 85° SSW 02:38:12 10° ESE
STARLINK-1317 3.5 02:32:18 10° WSW 02:36:12 85° NNW 02:40:08 10° ENE
STARLINK-1305 4.1 02:32:42 12° SW 02:36:21 47° SSE 02:40:21 10° ENE
STARLINK-1306 4.0 02:33:14 12° SW 02:37:01 50° SSE 02:41:06 10° ENE
STARLINK-55 3.2 02:34:16 10° W 02:37:28 68° N 02:40:40 10° ENE
STARLINK-1369 3.5 02:34:34 10° WNW 02:38:37 83° SSW 02:42:38 10° ESE
STARLINK-1274 3.3 02:35:16 10° WSW 02:38:49 83° NNW 02:42:23 10° ENE
CZ-4B R/B 3.7 02:33:54 10° NNE 02:39:07 69° WNW 02:44:22 10° SSW
Cosmos 1980 Rocket 3.3 02:34:21 10° WSW 02:39:31 36° NW 02:44:44 10° NNE
STARLINK-43 3.7 02:36:56 10° W 02:40:36 66° N 02:44:16 10° E
STARLINK-1262 4.0 02:37:30 11° SW 02:41:21 50° SSE 02:45:23 10° ENE
STARLINK-1372 3.4 02:38:44 10° WNW 02:42:45 80° SSW 02:46:43 10° ESE
STARLINK-1291 3.4 02:39:31 10° WSW 02:43:15 81° NNW 02:47:00 10° ENE
Cosmos 2333 Rocket 4.1 02:41:07 10° SSE 02:45:29 23° ESE 02:49:51 10° NE
STARLINK-1300 3.9 02:42:17 10° SW 02:46:18 53° SSE 02:50:21 10° ENE
STARLINK-1264 3.5 02:42:50 10° W 02:46:35 80° N 02:50:21 10° ENE
STARLINK-29 4.0 02:44:28 10° W 02:47:09 24° SW 02:49:47 10° SSE
STARLINK-1378 3.5 02:43:28 10° WNW 02:47:29 77° SSW 02:51:31 10° ESE
Meteor 1-28 Rocket 3.5 02:43:56 10° SSE 02:47:39 68° ENE 02:51:23 10° N
STARLINK-28 3.4 02:45:50 10° W 02:49:02 64° N 02:52:14 10° ENE
ADEOS II 2.2 02:44:05 10° NNE 02:49:24 86° ESE 02:54:40 10° SSW
Cosmos 2219 Rocket 4.1 02:45:17 10° SSE 02:49:35 23° ESE 02:53:53 10° NE
IRIDIUM 106 4.4 02:44:46 10° SSW 02:49:57 66° W 02:55:11 10° N
STARLINK-1267 3.5 02:46:13 10° W 02:49:58 78° NNW 02:53:43 10° ENE
STARLINK-1295 3.9 02:47:12 10° SW 02:51:15 56° SSE 02:55:19 10° ENE
STARLINK-64 3.2 02:48:13 10° WSW 02:51:48 75° SSE 02:55:24 10° ENE
SL-4 R/B 3.5 02:48:09 10° W 02:51:52 22° SW 02:55:29 10° S
STARLINK-1379 3.5 02:47:58 10° WNW 02:52:00 74° SSW 02:56:01 10° ESE
IRS-1D 3.7 02:46:54 10° NNE 02:52:12 74° WNW 02:57:21 10° SSW
AQUA 4.3 02:47:40 10° N 02:52:18 51° WNW 02:56:54 10° SW
Cosmos 2263 Rocket 3.4 02:48:13 10° NW 02:52:28 23° WSW 02:56:40 10° SSW
IDEFIX/ARIANE 42P 4.0 02:47:53 10° NNE 02:52:44 35° E 02:57:32 10° SSE
Cosmos 1606 3.7 02:49:41 10° N 02:53:22 49° ENE 02:57:04 10° SSE
STARLINK-1329 3.5 02:51:48 10° WNW 02:55:50 71° SSW 02:59:51 10° ESE
STARLINK-1287 3.8 02:52:08 10° SW 02:56:13 60° SSE 03:00:19 10° ENE
STARLINK-1207 3.5 02:53:00 10° W 02:56:46 76° NNW 03:00:32 10° ENE
ERS-2 2.3 02:53:36 10° SSE 02:57:16 78° ENE 03:00:58 10° NNW
BREEZE-M R/B 2.4 02:54:11 10° W 02:57:59 48° SSW 03:00:29 10° ESE
ARIANE 5 R/B 2.8 02:53:33 10° NNE 02:58:35 66° ESE 03:03:32 10° S
NPP 4.3 02:53:35 10° N 02:58:41 44° WNW 03:03:45 10° SW
STARLINK-33 3.3 02:55:48 10° W 02:58:54 63° N 03:02:00 10° ENE
STARLINK-1266 3.6 02:56:25 10° W 03:00:10 74° NNW 03:03:57 10° ENE
Cosmos 2341 Rocket 4.1 02:53:53 10° SSW 03:00:15 80° W 03:06:37 10° N
STARLINK-1362 3.5 02:56:20 10° WNW 03:00:22 68° SSW 03:04:23 10° ESE
Cosmos 1892 3.2 02:57:12 10° SSW 03:00:52 46° WNW 03:04:32 10° N
STARLINK-1320 3.1 02:58:39 10° WNW 03:01:41 46° SSW 03:04:41 10° SE
STARLINK-1322 3.1 02:59:00 10° WNW 03:02:01 45° SSW 03:05:01 10° SE
STARLINK-1324 3.1 02:59:20 10° WNW 03:02:20 45° SSW 03:05:20 10° SE
STARLINK-1294 3.2 02:59:38 10° WNW 03:02:39 45° SSW 03:05:41 10° SE
STARLINK-1261 3.2 03:00:01 10° WNW 03:03:02 45° SSW 03:06:02 10° SE
CZ-2C R/B 4.4 02:59:42 10° NNE 03:03:06 31° E 03:06:32 10° SSE
NOSS 2-1 (C) 3.5 02:59:52 10° WSW 03:03:13 57° NW 03:07:03 10° NE
STARLINK-1325 3.2 03:00:22 10° WNW 03:03:22 44° SSW 03:06:22 10° SE
STARLINK-26 3.6 03:00:07 10° W 03:03:33 65° N 03:06:59 10° E
STARLINK-1284 3.6 02:59:50 10° W 03:03:36 73° N 03:07:21 10° ENE
CZ-2D R/B 4.3 02:59:27 10° NNE 03:03:36 51° E 03:07:50 10° S
STARLINK-1333 3.2 03:00:44 10° WNW 03:03:44 44° SSW 03:06:44 10° SE
STARLINK-1334 3.2 03:01:01 10° WNW 03:04:01 44° SSW 03:07:01 10° SE
STARLINK-1326 3.2 03:01:20 10° WNW 03:04:20 44° SSW 03:07:19 10° SE
STARLINK-1323 3.2 03:01:44 10° WNW 03:04:44 44° SSW 03:07:43 10° SE
STARLINK-1373 3.5 03:00:49 10° WNW 03:04:49 65° SSW 03:08:48 10° ESE
STARLINK-1349 3.2 03:02:02 10° WNW 03:05:01 43° SSW 03:08:01 10° SE
STARLINK-1299 3.7 03:00:52 10° WSW 03:05:07 72° SSE 03:09:22 10° ENE
IRS-1C 4.2 03:00:11 10° NNE 03:05:34 86° WNW 03:10:55 10° SSW
STARLINK-1302 3.7 03:02:02 10° WSW 03:06:09 66° SSE 03:10:17 10° ENE
Cosmos 1844 3.8 03:01:31 10° NNW 03:07:22 80° WSW 03:13:09 10° SSE
